sampling_time,wmo_synop_id,msc_id,stn_nam,stn_elev,lat,long,stn_typ,date_tm,rpt_typ,result_time,crnt_buoy_lat,crnt_buoy_lat_qa_summary,crnt_buoy_long,crnt_buoy_long_qa_summary,avg_air_temp_pst10mts,avg_air_temp_pst10mts_qa_summary,avg_sea_sfc_temp_pst10mts,avg_sea_sfc_temp_pst10mts_qa_summary,avg_batry_volt_pst10mts,avg_batry_volt_pst10mts_qa_summary,avg_solr_panl_crnt_pst10mts,avg_solr_panl_crnt_pst10mts_qa_summary,avg_wtr_lvl_snsr_volt_pst10mts,avg_wtr_lvl_snsr_volt_pst10mts_qa_summary,avg_wave_hgt_pst20mts,avg_wave_hgt_pst20mts_qa_summary,pk_wave_hgt_pst20mts,pk_wave_hgt_pst20mts_qa_summary,sig_wave_pd_pst20mts,sig_wave_pd_pst20mts_qa_summary,sig_wave_hgt_pst20mts,sig_wave_hgt_pst20mts_qa_summary,avg_max_wave_hgt_pst20mts,avg_max_wave_hgt_pst20mts_qa_summary,avg_max_wave_pd_pst20mts,avg_max_wave_pd_pst20mts_qa_summary,avg_wave_pd_pst20mts,avg_wave_pd_pst20mts_qa_summary,pk_wave_pd_pst20mts,pk_wave_pd_pst20mts_qa_summary,avg_stn_pres_pst10mts,avg_stn_pres_pst10mts_qa_summary,avg_wnd_spd_pst10mts,avg_wnd_spd_pst10mts_qa_summary,avg_wnd_dir_pst10mts,avg_wnd_dir_pst10mts_qa_summary,max_avg_wnd_spd_pst10mts,max_avg_wnd_spd_pst10mts_qa_summary,wnd_snsr_vert_disp,wnd_snsr_vert_disp_qa_summary,pres_tend_char_pst3hrs,pres_tend_char_pst3hrs_data_flag,pres_tend_amt_pst3hrs,pres_tend_amt_pst3hrs_data_flag,avg_mslp_pst10mts,avg_mslp_pst10mts_data_flag,avg_stn_pres_pst10mts_1,avg_stn_pres_pst10mts_2,avg_wnd_spd_pst10mts_1,avg_wnd_spd_pst10mts_2,avg_wnd_dir_pst10mts_1,avg_wnd_dir_pst10mts_2,max_avg_wnd_spd_pst10mts_1,max_avg_wnd_spd_pst10mts_2,wnd_snsr_vert_disp_1,wnd_snsr_vert_disp_2
2020-10-24T00:00:00Z,44489,9302001,West Chedabucto Bay,0.0,45.48687,-61.14100000000001,18,2020-10-24T00:00:00.000Z,108,2020-10-24T00:03:48.614Z,45.48738,100,-61.1414,100,9.4,100,12.5,100,12.6,100,0.0,100,3.6,100,0.5,100,1.0,100,4.6,100,0.7,100,0.8,100,4.5,100,3.6,100,11.1,100,1026.1,100,30.2,100,89,100,35.6,100,5.0,100,7,1,-1.4,1,1026.1,1,1026.1,1026.2,30.2,29.5,89,94,35.6,34.6,5.0,4.0
2020-10-24T00:10:00Z,44489,9302001,West Chedabucto Bay,0.0,45.48687,-61.14100000000001,18,2020-10-24T00:10:00.000Z,110,2020-10-24T00:13:09.988Z,,-1,,-1,10.1,100,13.1,100,12.6,100,0.0,100,3.6,100,,-1,,-1,,-1,,-1,,-1,,-1,,-1,,-1,1026.0,100,29.5,100,90,100,34.6,100,5.0,100,8,1,-1.5,1,1026.0,1,1026.0,1026.0,29.5,28.8,90,95,34.6,33.8,5.0,4.0
2020-10-24T00:20:00Z,44489,9302001,West Chedabucto Bay,0.0,45.48687,-61.14100000000001,18,2020-10-24T00:20:00.000Z,110,2020-10-24T00:23:16.184Z,45.48738,100,-61.1414,100,9.4,100,12.5,100,12.6,100,0.0,100,3.6,100,,-1,,-1,,-1,,-1,,-1,,-1,,-1,,-1,1026.1,100,28.1,100,87,100,33.1,100,5.0,100,8,1,-1.3,1,1026.1,1,1026.1,1026.1,28.1,27.0,87,92,33.1,32.8,5.0,4.0
2020-10-24T00:30:00Z,44489,9302001,West Chedabucto Bay,0.0,45.48687,-61.14100000000001,18,2020-10-24T00:30:00.000Z,110,2020-10-24T00:33:15.516Z,45.48738,100,-61.1414,100,9.3,100,12.5,100,12.6,100,0.0,100,3.6,100,,-1,,-1,,-1,,-1,,-1,,-1,,-1,,-1,1026.0,100,29.5,100,86,100,34.6,100,5.0,100,7,1,-1.3,1,1026.0,1,1026.0,1026.0,29.5,28.4,86,91,34.6,34.2,5.0,4.0
2020-10-24T00:40:00Z,44489,9302001,West Chedabucto Bay,0.0,45.48687,-61.14100000000001,18,2020-10-24T00:40:00.000Z,110,2020-10-24T00:43:14.026Z,45.48738,100,-61.1414,100,9.3,100,12.5,100,12.6,100,0.0,100,3.6,100,,-1,,-1,,-1,,-1,,-1,,-1,,-1,,-1,1025.9,100,29.5,100,85,100,36.4,100,5.0,100,8,1,-1.2,1,1025.9,1,1025.9,1025.9,29.5,28.4,85,90,36.4,36.0,5.0,4.0
2020-10-24T00:50:00Z,44489,9302001,West Chedabucto Bay,0.0,45.48687,-61.14100000000001,18,2020-10-24T00:50:00.000Z,110,2020-10-24T00:53:24.705Z,45.48738,100,-61.14142,100,9.3,100,12.5,100,12.6,100,0.0,100,3.6,100,,-1,,-1,,-1,,-1,,-1,,-1,,-1,,-1,1025.8,100,29.5,100,84,100,34.2,100,5.0,100,8,1,-1.2,1,1025.8,1,1025.8,1025.9,29.5,28.4,84,89,34.2,33.8,5.0,4.0
2020-10-24T01:00:00Z,44489,9302001,West Chedabucto Bay,0.0,45.48687,-61.14100000000001,18,2020-10-24T01:00:00.000Z,108,2020-10-24T01:03:25.728Z,45.48738,100,-61.14142,100,9.3,100,12.5,100,12.6,100,0.0,100,3.6,100,0.5,100,1.2,100,4.9,100,0.7,100,0.9,100,6.3,100,3.8,100,10.5,100,1025.7,100,28.4,100,83,100,33.1,100,5.0,100,8,1,-1.3,1,1025.7,1,1025.7,1025.7,28.4,27.7,83,88,33.1,32.0,5.0,4.0
2020-10-24T01:10:00Z,44489,9302001,West Chedabucto Bay,0.0,45.48687,-61.14100000000001,18,2020-10-24T01:10:00.000Z,110,2020-10-24T01:16:33.151Z,45.48738,100,-61.14142,100,9.4,100,12.5,100,12.6,100,0.0,100,3.6,100,,-1,,-1,,-1,,-1,,-1,,-1,,-1,,-1,1025.6,100,27.7,100,84,100,34.6,100,5.0,100,6,1,-1.5,1,1025.6,1,1025.6,1025.6,27.7,26.6,84,89,34.6,33.5,5.0,4.0
2020-10-24T01:20:00Z,44489,9302001,West Chedabucto Bay,0.0,45.48687,-61.14100000000001,18,2020-10-24T01:20:00.000Z,110,2020-10-24T01:23:31.376Z,45.48738,100,-61.1414,100,9.3,100,12.5,100,12.6,100,0.0,100,3.6,100,,-1,,-1,,-1,,-1,,-1,,-1,,-1,,-1,1025.5,100,27.7,100,84,100,33.8,100,5.0,100,8,1,-1.5,1,1025.5,1,1025.5,1025.5,27.7,26.6,84,89,33.8,33.5,5.0,4.0
2020-10-24T01:30:00Z,44489,9302001,West Chedabucto Bay,0.0,45.48687,-61.14100000000001,18,2020-10-24T01:30:00.000Z,110,2020-10-24T01:33:30.375Z,45.4874,100,-61.14143000000001,100,9.4,100,12.5,100,12.6,100,0.0,100,3.6,100,,-1,,-1,,-1,,-1,,-1,,-1,,-1,,-1,1025.4,100,28.4,100,83,100,33.5,100,5.0,100,8,1,-1.4,1,1025.4,1,1025.4,1025.4,28.4,27.4,83,88,33.5,33.1,5.0,4.0
2020-10-24T01:40:00Z,44489,9302001,West Chedabucto Bay,0.0,45.48687,-61.14100000000001,18,2020-10-24T01:40:00.000Z,110,2020-10-24T01:43:36.089Z,45.48738,100,-61.14142,100,9.5,100,12.5,100,12.6,100,0.0,100,3.6,100,,-1,,-1,,-1,,-1,,-1,,-1,,-1,,-1,1025.3,100,27.0,100,87,100,33.8,100,5.0,100,8,1,-1.5,1,1025.3,1,1025.3,1025.3,27.0,25.6,87,92,33.8,33.1,5.0,4.0
2020-10-24T01:50:00Z,44489,9302001,West Chedabucto Bay,0.0,45.48687,-61.14100000000001,18,2020-10-24T01:50:00.000Z,110,2020-10-24T01:53:35.840Z,45.48738,100,-61.14143000000001,100,9.4,100,12.5,100,12.6,100,0.0,100,3.6,100,,-1,,-1,,-1,,-1,,-1,,-1,,-1,,-1,1025.0,100,30.2,100,87,100,35.3,100,5.0,100,8,1,-1.8,1,1025.0,1,1025.0,1025.0,30.2,29.2,87,92,35.3,34.2,5.0,4.0
2020-10-24T02:00:00Z,44489,9302001,West Chedabucto Bay,0.0,45.48687,-61.14100000000001,18,2020-10-24T02:00:00.000Z,108,2020-10-24T02:02:40.279Z,45.48738,100,-61.14142,100,9.4,100,12.4,100,12.6,100,0.0,100,3.6,100,0.4,100,1.1,100,5.5,100,0.7,100,0.8,100,6.4,100,3.8,100,10.5,100,1024.9,100,28.4,100,87,100,33.8,100,5.0,100,8,1,-1.7,1,1024.9,1,1024.9,1024.9,28.4,27.4,87,92,33.8,32.8,5.0,4.0
2020-10-24T02:10:00Z,44489,9302001,West Chedabucto Bay,0.0,45.48687,-61.14100000000001,18,2020-10-24T02:10:00.000Z,110,2020-10-24T02:15:40.934Z,45.48738,100,-61.14142,100,9.5,100,12.4,100,12.6,100,0.0,100,3.6,100,,-1,,-1,,-1,,-1,,-1,,-1,,-1,,-1,1024.8,100,25.9,100,86,100,32.4,100,5.0,100,8,1,-1.8,1,1024.8,1,1024.8,1024.9,25.9,24.8,86,91,32.4,32.4,5.0,4.0
2020-10-24T02:20:00Z,44489,9302001,West Chedabucto Bay,0.0,45.48687,-61.14100000000001,18,2020-10-24T02:20:00.000Z,110,2020-10-24T02:22:38.263Z,45.48738,100,-61.14142,100,9.5,100,12.4,100,12.6,100,0.0,100,3.6,100,,-1,,-1,,-1,,-1,,-1,,-1,,-1,,-1,1024.6,100,27.0,100,88,100,34.2,100,5.0,100,8,1,-2.0,1,1024.6,1,1024.6,1024.6,27.0,26.3,88,93,34.2,33.8,5.0,4.0
2020-10-24T02:30:00Z,44489,9302001,West Chedabucto Bay,0.0,45.48687,-61.14100000000001,18,2020-10-24T02:30:00.000Z,110,2020-10-24T02:32:48.041Z,45.48738,100,-61.14143000000001,100,9.6,100,12.4,100,12.6,100,0.0,100,3.6,100,,-1,,-1,,-1,,-1,,-1,,-1,,-1,,-1,1024.6,100,27.4,100,87,100,32.0,100,5.0,100,8,1,-1.9,1,1024.6,1,1024.6,1024.7,27.4,26.3,87,92,32.0,31.7,5.0,4.0
2020-10-24T02:40:00Z,44489,9302001,West Chedabucto Bay,0.0,45.48687,-61.14100000000001,18,2020-10-24T02:40:00.000Z,110,2020-10-24T02:42:59.528Z,45.48738,100,-61.14143000000001,100,9.7,100,12.4,100,12.6,100,0.0,100,3.6,100,,-1,,-1,,-1,,-1,,-1,,-1,,-1,,-1,1024.5,100,26.6,100,88,100,32.8,100,5.0,100,8,1,-2.0,1,1024.5,1,1024.5,1024.5,26.6,25.6,88,92,32.8,31.3,5.0,4.0
2020-10-24T02:50:00Z,44489,9302001,West Chedabucto Bay,0.0,45.48687,-61.14100000000001,18,2020-10-24T02:50:00.000Z,110,2020-10-24T02:52:59.332Z,45.4874,100,-61.14143000000001,100,9.7,100,12.4,100,12.6,100,0.0,100,3.6,100,,-1,,-1,,-1,,-1,,-1,,-1,,-1,,-1,1024.2,100,28.4,100,87,100,33.5,100,5.0,100,8,1,-2.1,1,1024.2,1,1024.2,1024.2,28.4,27.7,87,92,33.5,32.4,5.0,4.0
2020-10-24T03:00:00Z,44489,9302001,West Chedabucto Bay,0.0,45.48687,-61.14100000000001,18,2020-10-24T03:00:00.000Z,108,2020-10-24T03:03:21.158Z,45.4874,100,-61.14143000000001,100,9.6,100,12.4,100,12.6,100,0.0,100,3.6,100,0.4,100,1.1,100,5.0,100,0.6,100,0.8,100,5.9,100,3.7,100,11.1,100,1024.2,100,28.1,100,91,100,34.9,100,5.0,100,8,1,-1.9,1,1024.2,1,1024.2,1024.2,28.1,27.4,91,96,34.9,32.4,5.0,4.0
2020-10-24T03:10:00Z,44489,9302001,West Chedabucto Bay,0.0,45.48687,-61.14100000000001,18,2020-10-24T03:10:00.000Z,110,2020-10-24T03:16:10.212Z,45.4874,100,-61.14145,100,9.7,100,12.4,100,12.6,100,0.0,100,3.6,100,,-1,,-1,,-1,,-1,,-1,,-1,,-1,,-1,1024.1,100,27.4,100,90,100,31.7,100,5.0,100,8,1,-1.9,1,1024.1,1,1024.1,1024.1,27.4,26.3,90,95,31.7,30.6,5.0,4.0
2020-10-24T03:20:00Z,44489,9302001,West Chedabucto Bay,0.0,45.48687,-61.14100000000001,18,2020-10-24T03:20:00.000Z,110,2020-10-24T03:23:09.551Z,45.48738,100,-61.14145,100,9.7,100,12.4,100,12.6,100,0.0,100,3.6,100,,-1,,-1,,-1,,-1,,-1,,-1,,-1,,-1,1024.1,100,27.4,100,91,100,33.1,100,5.0,100,7,1,-2.1,1,1024.1,1,1024.1,1024.1,27.4,26.3,91,96,33.1,32.4,5.0,4.0
2020-10-24T03:30:00Z,44489,9302001,West Chedabucto Bay,0.0,45.48687,-61.14100000000001,18,2020-10-24T03:30:00.000Z,110,2020-10-24T03:33:11.576Z,45.48738,100,-61.14142,100,9.7,100,12.4,100,12.6,100,0.0,100,3.6,100,,-1,,-1,,-1,,-1,,-1,,-1,,-1,,-1,1023.9,100,27.7,100,91,100,33.1,100,5.0,100,8,1,-2.1,1,1023.9,1,1023.9,1023.9,27.7,26.6,91,96,33.1,32.4,5.0,4.0
2020-10-24T03:40:00Z,44489,9302001,West Chedabucto Bay,0.0,45.48687,-61.14100000000001,18,2020-10-24T03:40:00.000Z,110,2020-10-24T03:43:10.755Z,45.48738,100,-61.14142,100,9.8,100,12.4,100,12.6,100,0.0,100,3.6,100,,-1,,-1,,-1,,-1,,-1,,-1,,-1,,-1,1023.7,100,26.3,100,90,100,31.7,100,5.0,100,8,1,-2.3,1,1023.7,1,1023.7,1023.7,26.3,25.2,90,95,31.7,30.6,5.0,4.0
2020-10-24T03:50:00Z,44489,9302001,West Chedabucto Bay,0.0,45.48687,-61.14100000000001,18,2020-10-24T03:50:00.000Z,110,2020-10-24T03:53:08.859Z,45.4874,100,-61.14143000000001,100,9.9,100,12.4,100,12.6,100,0.0,100,3.6,100,,-1,,-1,,-1,,-1,,-1,,-1,,-1,,-1,1023.5,100,26.6,100,91,100,32.4,100,5.0,100,6,1,-2.4,1,1023.5,1,1023.5,1023.5,26.6,25.6,91,96,32.4,32.0,5.0,4.0
2020-10-24T04:00:00Z,44489,9302001,West Chedabucto Bay,0.0,45.48687,-61.14100000000001,18,2020-10-24T04:00:00.000Z,108,2020-10-24T04:03:11.738Z,45.4874,100,-61.14142,100,9.9,100,12.4,100,12.6,100,0.0,100,3.6,100,0.4,100,1.2,100,4.8,100,0.7,100,0.8,100,5.0,100,3.7,100,11.1,100,1023.3,100,27.7,100,94,100,34.9,100,5.0,100,8,1,-2.4,1,1023.3,1,1023.3,1023.3,27.7,27.0,94,99,34.9,33.5,5.0,4.0
2020-10-24T04:10:00Z,44489,9302001,West Chedabucto Bay,0.0,45.48687,-61.14100000000001,18,2020-10-24T04:10:00.000Z,110,2020-10-24T04:16:23.896Z,45.48742,100,-61.14142,100,10.0,100,12.4,100,12.6,100,0.0,100,3.6,100,,-1,,-1,,-1,,-1,,-1,,-1,,-1,,-1,1023.0,100,29.2,100,91,100,34.9,100,5.0,100,8,1,-2.6,1,1023.0,1,1023.0,1023.0,29.2,28.1,91,96,34.9,34.9,5.0,4.0
2020-10-24T04:20:00Z,44489,9302001,West Chedabucto Bay,0.0,45.48687,-61.14100000000001,18,2020-10-24T04:20:00.000Z,110,2020-10-24T04:23:24.784Z,45.4874,100,-61.14142,100,10.1,100,12.4,100,12.6,100,0.0,100,3.6,100,,-1,,-1,,-1,,-1,,-1,,-1,,-1,,-1,1022.9,100,27.4,100,94,100,35.3,100,5.0,100,8,1,-2.6,1,1022.9,1,1022.9,1022.9,27.4,26.6,94,99,35.3,33.8,5.0,4.0
2020-10-24T04:30:00Z,44489,9302001,West Chedabucto Bay,0.0,45.48687,-61.14100000000001,18,2020-10-24T04:30:00.000Z,110,2020-10-24T04:33:27.369Z,45.48738,100,-61.14145,100,10.1,100,12.4,100,12.6,100,0.0,100,3.6,100,,-1,,-1,,-1,,-1,,-1,,-1,,-1,,-1,1022.8,100,26.6,100,92,100,34.2,100,5.0,100,8,1,-2.6,1,1022.8,1,1022.8,1022.8,26.6,25.6,92,97,34.2,33.1,5.0,4.0
2020-10-24T04:40:00Z,44489,9302001,West Chedabucto Bay,0.0,45.48687,-61.14100000000001,18,2020-10-24T04:40:00.000Z,110,2020-10-24T04:43:26.339Z,45.4874,100,-61.14143000000001,100,10.2,100,12.4,100,12.5,100,0.0,100,3.6,100,,-1,,-1,,-1,,-1,,-1,,-1,,-1,,-1,1022.6,100,27.7,100,94,100,32.4,100,5.0,100,8,1,-2.6,1,1022.6,1,1022.6,1022.7,27.7,26.6,94,99,32.4,32.0,5.0,4.0
2020-10-24T04:50:00Z,44489,9302001,West Chedabucto Bay,0.0,45.48687,-61.14100000000001,18,2020-10-24T04:50:00.000Z,110,2020-10-24T04:53:30.791Z,45.4874,100,-61.14143000000001,100,10.3,100,12.4,100,12.5,100,0.0,100,3.6,100,,-1,,-1,,-1,,-1,,-1,,-1,,-1,,-1,1022.6,100,25.9,100,92,100,31.3,100,5.0,100,8,1,-2.4,1,1022.6,1,1022.6,1022.6,25.9,24.8,92,98,31.3,30.2,5.0,4.0
2020-10-24T05:00:00Z,44489,9302001,West Chedabucto Bay,0.0,45.48687,-61.14100000000001,18,2020-10-24T05:00:00.000Z,108,2020-10-24T05:03:29.721Z,45.4874,100,-61.14143000000001,100,10.4,100,12.4,100,12.5,100,0.0,100,3.6,100,0.5,100,1.2,100,5.1,100,0.8,100,0.9,100,5.6,100,4.0,100,10.5,100,1022.4,100,25.9,100,92,100,32.8,100,5.0,100,8,1,-2.5,1,1022.4,1,1022.4,1022.4,25.9,24.8,92,98,32.8,31.7,5.0,4.0
2020-10-24T05:10:00Z,44489,9302001,West Chedabucto Bay,0.0,45.48687,-61.14100000000001,18,2020-10-24T05:10:00.000Z,110,2020-10-24T05:16:29.606Z,45.48742,100,-61.14145,100,10.4,100,12.4,100,12.6,100,0.0,100,3.6,100,,-1,,-1,,-1,,-1,,-1,,-1,,-1,,-1,1022.3,100,25.9,100,90,100,30.2,100,5.0,100,7,1,-2.5,1,1022.3,1,1022.3,1022.3,25.9,24.8,90,95,30.2,29.9,5.0,4.0
2020-10-24T05:20:00Z,44489,9302001,West Chedabucto Bay,0.0,45.48687,-61.14100000000001,18,2020-10-24T05:20:00.000Z,110,2020-10-24T05:23:33.369Z,45.48742,100,-61.14143000000001,100,10.5,100,12.4,100,12.6,100,0.0,100,3.6,100,,-1,,-1,,-1,,-1,,-1,,-1,,-1,,-1,1022.2,100,27.0,100,94,100,34.9,100,5.0,100,8,1,-2.5,1,1022.2,1,1022.2,1022.2,27.0,26.3,94,99,34.9,34.6,5.0,4.0
2020-10-24T05:30:00Z,44489,9302001,West Chedabucto Bay,0.0,45.48687,-61.14100000000001,18,2020-10-24T05:30:00.000Z,110,2020-10-24T05:33:52.113Z,45.4874,100,-61.14143000000001,100,10.5,100,12.4,100,12.6,100,0.0,100,3.6,100,,-1,,-1,,-1,,-1,,-1,,-1,,-1,,-1,1022.0,100,27.7,100,92,100,32.4,100,5.0,100,7,1,-2.6,1,1022.0,1,1022.0,1022.0,27.7,26.6,92,97,32.4,32.0,5.0,4.0
2020-10-24T05:40:00Z,44489,9302001,West Chedabucto Bay,0.0,45.48687,-61.14100000000001,18,2020-10-24T05:40:00.000Z,110,2020-10-24T05:43:47.067Z,45.4874,100,-61.14143000000001,100,10.5,100,12.4,100,12.5,100,0.0,100,3.6,100,,-1,,-1,,-1,,-1,,-1,,-1,,-1,,-1,1022.0,100,28.8,100,94,100,33.8,100,5.0,100,6,1,-2.5,1,1022.0,1,1022.0,1022.0,28.8,28.1,94,98,33.8,32.8,5.0,4.0
2020-10-24T05:50:00Z,44489,9302001,West Chedabucto Bay,0.0,45.48687,-61.14100000000001,18,2020-10-24T05:50:00.000Z,110,2020-10-24T05:52:47.631Z,45.48738,100,-61.14142,100,10.6,100,12.4,100,12.5,100,0.0,100,3.6,100,,-1,,-1,,-1,,-1,,-1,,-1,,-1,,-1,1022.0,100,29.5,100,98,100,35.6,100,5.0,100,6,1,-2.2,1,1022.0,1,1022.0,1022.1,29.5,28.8,98,103,35.6,34.6,5.0,4.0
2020-10-24T06:00:00Z,44489,9302001,West Chedabucto Bay,0.0,45.48687,-61.14100000000001,18,2020-10-24T06:00:00.000Z,108,2020-10-24T06:02:52.377Z,45.48738,100,-61.1414,100,10.6,100,12.4,100,12.5,100,0.0,100,3.6,100,0.5,100,1.1,100,4.6,100,0.7,100,0.9,100,4.7,100,3.8,100,11.8,100,1021.9,100,29.2,100,100,100,34.9,100,5.0,100,6,1,-2.3,1,1021.9,1,1021.9,1021.9,29.2,28.4,100,105,34.9,34.2,5.0,4.0
2020-10-24T06:10:00Z,44489,9302001,West Chedabucto Bay,0.0,45.48687,-61.14100000000001,18,2020-10-24T06:10:00.000Z,110,2020-10-24T06:16:47.620Z,45.48738,100,-61.14142,100,10.7,100,12.4,100,12.5,100,0.0,100,3.6,100,,-1,,-1,,-1,,-1,,-1,,-1,,-1,,-1,1021.8,100,30.2,100,98,100,35.6,100,5.0,100,6,1,-2.3,1,1021.8,1,1021.8,1021.9,30.2,29.2,98,103,35.6,34.9,5.0,4.0
2020-10-24T06:20:00Z,44489,9302001,West Chedabucto Bay,0.0,45.48687,-61.14100000000001,18,2020-10-24T06:20:00.000Z,110,2020-10-24T06:22:48.486Z,45.4874,100,-61.14142,100,10.7,100,12.4,100,12.6,100,0.0,100,3.6,100,,-1,,-1,,-1,,-1,,-1,,-1,,-1,,-1,1021.8,100,31.0,100,102,100,36.7,100,5.0,100,6,1,-2.3,1,1021.8,1,1021.8,1021.8,31.0,29.9,102,107,36.7,36.4,5.0,4.0
2020-10-24T06:30:00Z,44489,9302001,West Chedabucto Bay,0.0,45.48687,-61.14100000000001,18,2020-10-24T06:30:00.000Z,110,2020-10-24T06:33:56.933Z,45.48737,100,-61.1414,100,10.8,100,12.4,100,12.5,100,0.0,100,3.6,100,,-1,,-1,,-1,,-1,,-1,,-1,,-1,,-1,1021.7,100,29.2,100,102,100,34.9,100,5.0,100,6,1,-2.3,1,1021.7,1,1021.7,1021.7,29.2,28.1,102,107,34.9,34.2,5.0,4.0
2020-10-24T06:40:00Z,44489,9302001,West Chedabucto Bay,0.0,45.48687,-61.14100000000001,18,2020-10-24T06:40:00.000Z,110,2020-10-24T06:42:57.398Z,45.48737,100,-61.14137,100,10.8,100,12.4,100,12.5,100,0.0,100,3.6,100,,-1,,-1,,-1,,-1,,-1,,-1,,-1,,-1,1021.5,100,29.9,100,102,100,35.3,100,5.0,100,6,1,-2.2,1,1021.5,1,1021.5,1021.5,29.9,29.2,102,107,35.3,35.6,5.0,4.0
2020-10-24T06:50:00Z,44489,9302001,West Chedabucto Bay,0.0,45.48687,-61.14100000000001,18,2020-10-24T06:50:00.000Z,110,2020-10-24T06:52:57.943Z,45.48737,100,-61.14142,100,10.8,100,12.4,100,12.5,100,0.0,100,3.6,100,,-1,,-1,,-1,,-1,,-1,,-1,,-1,,-1,1021.2,100,31.3,100,100,100,37.4,100,5.0,100,6,1,-2.2,1,1021.2,1,1021.2,1021.3,31.3,30.2,100,105,37.4,37.4,5.0,4.0
2020-10-24T07:00:00Z,44489,9302001,West Chedabucto Bay,0.0,45.48687,-61.14100000000001,18,2020-10-24T07:00:00.000Z,108,2020-10-24T07:03:12.494Z,45.48735,100,-61.14137,100,10.8,100,12.4,100,12.5,100,0.0,100,3.6,100,0.5,100,1.4,100,5.0,100,0.8,100,1.0,100,5.5,100,3.9,100,11.1,100,1021.3,100,30.6,100,105,100,36.4,100,5.0,100,6,1,-2.0,1,1021.3,1,1021.3,1021.3,30.6,29.5,105,110,36.4,36.0,5.0,4.0
2020-10-24T07:10:00Z,44489,9302001,West Chedabucto Bay,0.0,45.48687,-61.14100000000001,18,2020-10-24T07:10:00.000Z,110,2020-10-24T07:16:10.516Z,45.4874,100,-61.1414,100,10.8,100,12.4,100,12.5,100,0.0,100,3.6,100,,-1,,-1,,-1,,-1,,-1,,-1,,-1,,-1,1021.2,100,31.3,100,103,100,36.4,100,5.0,100,6,1,-1.8,1,1021.2,1,1021.2,1021.2,31.3,30.2,103,108,36.4,36.7,5.0,4.0
2020-10-24T07:20:00Z,44489,9302001,West Chedabucto Bay,0.0,45.48687,-61.14100000000001,18,2020-10-24T07:20:00.000Z,110,2020-10-24T07:23:09.339Z,45.48738,100,-61.1414,100,10.9,100,12.4,100,12.5,100,0.0,100,3.6,100,,-1,,-1,,-1,,-1,,-1,,-1,,-1,,-1,1021.1,100,30.2,100,99,100,37.1,100,5.0,100,6,1,-1.8,1,1021.1,1,1021.1,1021.1,30.2,29.5,99,104,37.1,36.0,5.0,4.0
2020-10-24T07:30:00Z,44489,9302001,West Chedabucto Bay,0.0,45.48687,-61.14100000000001,18,2020-10-24T07:30:00.000Z,110,2020-10-24T07:33:09.048Z,45.4874,100,-61.14142,100,10.9,100,12.4,100,12.5,100,0.0,100,3.6,100,,-1,,-1,,-1,,-1,,-1,,-1,,-1,,-1,1021.0,100,30.2,100,98,100,36.7,100,5.0,100,6,1,-1.8,1,1021.0,1,1021.0,1021.0,30.2,29.2,98,103,36.7,36.0,5.0,4.0
2020-10-24T07:40:00Z,44489,9302001,West Chedabucto Bay,0.0,45.48687,-61.14100000000001,18,2020-10-24T07:40:00.000Z,110,2020-10-24T07:43:15.004Z,45.487429999999996,100,-61.14147,100,10.9,100,12.4,100,12.5,100,0.0,100,3.6,100,,-1,,-1,,-1,,-1,,-1,,-1,,-1,,-1,1020.9,100,29.5,100,102,100,36.0,100,5.0,100,6,1,-1.7,1,1020.9,1,1020.9,1021.0,29.5,28.8,102,107,36.0,35.6,5.0,4.0
2020-10-24T07:50:00Z,44489,9302001,West Chedabucto Bay,0.0,45.48687,-61.14100000000001,18,2020-10-24T07:50:00.000Z,110,2020-10-24T07:53:12.925Z,45.4874,100,-61.14142,100,10.9,100,12.4,100,12.5,100,0.0,100,3.6,100,,-1,,-1,,-1,,-1,,-1,,-1,,-1,,-1,1020.8,100,29.5,100,97,100,33.5,100,5.0,100,6,1,-1.8,1,1020.8,1,1020.8,1020.8,29.5,28.8,97,102,33.5,32.8,5.0,4.0
2020-10-24T08:00:00Z,44489,9302001,West Chedabucto Bay,0.0,45.48687,-61.14100000000001,18,2020-10-24T08:00:00.000Z,108,2020-10-24T08:03:15.798Z,45.4874,100,-61.14143000000001,100,10.9,100,12.4,100,12.5,100,0.0,100,3.6,100,0.6,100,1.4,100,5.2,100,0.9,100,1.1,100,5.4,100,4.0,100,10.5,100,1020.6,100,30.2,100,102,100,35.3,100,5.0,100,8,1,-1.8,1,1020.6,1,1020.6,1020.6,30.2,29.2,102,107,35.3,34.6,5.0,4.0
2020-10-24T08:10:00Z,44489,9302001,West Chedabucto Bay,0.0,45.48687,-61.14100000000001,18,2020-10-24T08:10:00.000Z,110,2020-10-24T08:16:25.329Z,45.4874,100,-61.14145,100,11.0,100,12.4,100,12.5,100,0.0,100,3.6,100,,-1,,-1,,-1,,-1,,-1,,-1,,-1,,-1,1020.5,100,28.4,100,97,100,36.0,100,5.0,100,8,1,-1.8,1,1020.5,1,1020.5,1020.5,28.4,27.0,97,102,36.0,36.0,5.0,4.0
2020-10-24T08:20:00Z,44489,9302001,West Chedabucto Bay,0.0,45.48687,-61.14100000000001,18,2020-10-24T08:20:00.000Z,110,2020-10-24T08:23:25.727Z,45.4874,100,-61.14142,100,11.0,100,12.4,100,12.5,100,0.0,100,3.6,100,,-1,,-1,,-1,,-1,,-1,,-1,,-1,,-1,1020.1,100,28.1,100,93,100,35.3,100,5.0,100,8,1,-2.1,1,1020.1,1,1020.1,1020.1,28.1,27.4,93,97,35.3,34.6,5.0,4.0
2020-10-24T08:30:00Z,44489,9302001,West Chedabucto Bay,0.0,45.48687,-61.14100000000001,18,2020-10-24T08:30:00.000Z,110,2020-10-24T08:33:29.461Z,45.48738,100,-61.14142,100,10.9,100,12.4,100,12.5,100,0.0,100,3.6,100,,-1,,-1,,-1,,-1,,-1,,-1,,-1,,-1,1019.9,100,27.4,100,89,100,32.0,100,5.0,100,8,1,-2.1,1,1019.9,1,1019.9,1019.9,27.4,26.3,89,94,32.0,31.3,5.0,4.0
2020-10-24T08:40:00Z,44489,9302001,West Chedabucto Bay,0.0,45.48687,-61.14100000000001,18,2020-10-24T08:40:00.000Z,110,2020-10-24T08:43:32.945Z,45.4874,100,-61.14143000000001,100,11.0,100,12.4,100,12.5,100,0.0,100,3.6,100,,-1,,-1,,-1,,-1,,-1,,-1,,-1,,-1,1019.8,100,27.4,100,93,100,31.7,100,5.0,100,8,1,-2.2,1,1019.8,1,1019.8,1019.9,27.4,26.3,93,98,31.7,31.3,5.0,4.0
2020-10-24T08:50:00Z,44489,9302001,West Chedabucto Bay,0.0,45.48687,-61.14100000000001,18,2020-10-24T08:50:00.000Z,110,2020-10-24T08:53:46.712Z,45.4874,100,-61.14143000000001,100,11.0,100,12.4,100,12.5,100,0.0,100,3.6,100,,-1,,-1,,-1,,-1,,-1,,-1,,-1,,-1,1019.7,100,28.4,100,93,100,33.8,100,5.0,100,8,1,-2.3,1,1019.7,1,1019.7,1019.7,28.4,27.7,93,98,33.8,33.5,5.0,4.0
2020-10-24T09:00:00Z,44489,9302001,West Chedabucto Bay,0.0,45.48687,-61.14100000000001,18,2020-10-24T09:00:00.000Z,108,2020-10-24T09:03:02.256Z,45.4874,100,-61.14143000000001,100,11.0,100,12.4,100,12.5,100,0.0,100,3.6,100,0.5,100,1.5,100,4.9,100,0.8,100,1.0,100,5.3,100,4.0,100,5.6,100,1019.6,100,28.4,100,90,100,33.8,100,5.0,100,8,1,-2.4,1,1019.6,1,1019.6,1019.6,28.4,27.4,90,96,33.8,33.8,5.0,4.0
2020-10-24T09:10:00Z,44489,9302001,West Chedabucto Bay,0.0,45.48687,-61.14100000000001,18,2020-10-24T09:10:00.000Z,110,2020-10-24T09:15:43.434Z,45.48738,100,-61.14142,100,11.0,100,12.4,100,12.5,100,0.0,100,3.6,100,,-1,,-1,,-1,,-1,,-1,,-1,,-1,,-1,1019.4,100,27.4,100,88,100,32.8,100,5.0,100,8,1,-2.5,1,1019.4,1,1019.4,1019.4,27.4,26.3,88,93,32.8,31.7,5.0,4.0
2020-10-24T09:20:00Z,44489,9302001,West Chedabucto Bay,0.0,45.48687,-61.14100000000001,18,2020-10-24T09:20:00.000Z,110,2020-10-24T09:22:44.985Z,45.48737,100,-61.14143000000001,100,11.0,100,12.4,100,12.5,100,0.0,100,3.6,100,,-1,,-1,,-1,,-1,,-1,,-1,,-1,,-1,1019.3,100,26.3,100,89,100,31.7,100,5.0,100,8,1,-2.5,1,1019.3,1,1019.3,1019.3,26.3,25.2,89,94,31.7,31.0,5.0,4.0
2020-10-24T09:30:00Z,44489,9302001,West Chedabucto Bay,0.0,45.48687,-61.14100000000001,18,2020-10-24T09:30:00.000Z,110,2020-10-24T09:32:46.237Z,45.48738,100,-61.14145,100,11.0,100,12.4,100,12.5,100,0.0,100,3.6,100,,-1,,-1,,-1,,-1,,-1,,-1,,-1,,-1,1019.2,100,27.0,100,89,100,32.4,100,5.0,100,7,1,-2.4,1,1019.2,1,1019.2,1019.2,27.0,25.9,89,95,32.4,31.3,5.0,4.0
2020-10-24T09:40:00Z,44489,9302001,West Chedabucto Bay,0.0,45.48687,-61.14100000000001,18,2020-10-24T09:40:00.000Z,110,2020-10-24T09:42:49.134Z,45.4874,100,-61.14143000000001,100,11.0,100,12.4,100,12.5,100,0.0,100,3.6,100,,-1,,-1,,-1,,-1,,-1,,-1,,-1,,-1,1019.2,100,28.4,100,91,100,33.8,100,5.0,100,8,1,-2.3,1,1019.2,1,1019.2,1019.2,28.4,27.7,91,96,33.8,33.1,5.0,4.0
2020-10-24T09:50:00Z,44489,9302001,West Chedabucto Bay,0.0,45.48687,-61.14100000000001,18,2020-10-24T09:50:00.000Z,110,2020-10-24T09:52:54.010Z,45.48737,100,-61.1414,100,11.1,100,12.4,100,12.5,100,0.0,100,3.6,100,,-1,,-1,,-1,,-1,,-1,,-1,,-1,,-1,1019.2,100,29.2,100,95,100,36.4,100,5.0,100,7,1,-2.0,1,1019.2,1,1019.2,1019.2,29.2,28.4,95,100,36.4,36.4,5.0,4.0
2020-10-24T10:00:00Z,44489,9302001,West Chedabucto Bay,0.0,45.48687,-61.14100000000001,18,2020-10-24T10:00:00.000Z,108,2020-10-24T10:02:53.202Z,45.4874,100,-61.14145,100,11.1,100,12.4,100,12.5,100,0.0,100,3.6,100,0.6,100,1.4,100,5.1,100,0.9,100,1.1,100,5.4,100,4.2,100,5.3,100,1019.0,100,29.2,100,92,100,34.2,100,5.0,100,6,1,-2.3,1,1019.0,1,1019.0,1019.0,29.2,28.1,92,97,34.2,34.6,5.0,4.0